When you browse on this site, cookies collect data to enhance your experience and personalize the content and advertising you see.
Visit our Privacy Policy to learn more. By continuing to use the site, you agree to this use of cookies and data.
  • In Österreich
  • Länderverzeichnis
  • Für 7 Tage
  • Wassertemperatur
  • Satellitenkarten
  • Wetterkarte
  • News
  • Widgets
  • user-avatar
    Anmelden

    Stündliche Wetter Bourgoin

    Heute, 18 November, Sonntag

    Zeit Temperatur Niederschläge Wind Luftdruck Luftfeuchtigkeit
    00:00 +4°C° 0 mm 1 m/S 738 mmHg 86%
    01:00 +4°C° 0 mm 1 m/S 738 mmHg 85%
    02:00 +3°C° 0 mm 1 m/S 738 mmHg 85%
    03:00 +3°C° 0 mm 1 m/S 738 mmHg 85%
    04:00 +3°C° 0 mm 1 m/S 737 mmHg 84%
    05:00 +3°C° 0 mm 1 m/S 737 mmHg 84%
    06:00 +3°C° 0 mm 1 m/S 737 mmHg 84%
    07:00 +4°C° 0 mm 1 m/S 737 mmHg 78%
    08:00 +5°C° 0 mm 1 m/S 737 mmHg 72%
    09:00 +6°C° 0 mm 0 m/S 737 mmHg 67%
    10:00 +8°C° 0 mm 1 m/S 736 mmHg 62%
    11:00 +9°C° 0 mm 1 m/S 736 mmHg 57%
    12:00 +11°C° 0 mm 1 m/S 736 mmHg 52%
    13:00 +10°C° 0 mm 1 m/S 735 mmHg 55%
    14:00 +10°C° 0 mm 1 m/S 735 mmHg 59%
    15:00 +9°C° 0 mm 1 m/S 735 mmHg 62%
    16:00 +8°C° 0 mm 1 m/S 734 mmHg 69%
    17:00 +6°C° 0 mm 1 m/S 734 mmHg 75%
    18:00 +4°C° 0 mm 1 m/S 734 mmHg 82%
    19:00 +4°C° 0 mm 1 m/S 734 mmHg 83%
    20:00 +3°C° 0 mm 1 m/S 734 mmHg 83%
    21:00 +3°C° 0 mm 1 m/S 733 mmHg 84%
    22:00 +3°C° 0 mm 1 m/S 733 mmHg 85%
    23:00 +2°C° 0 mm 1 m/S 732 mmHg 85%

    Morgen, 19 November, Montag

    Zeit Temperatur Niederschläge Wind Luftdruck Luftfeuchtigkeit
    00:00 +1°C° 0 mm 0 m/S 732 mmHg 86%
    01:00 +2°C° 0 mm 1 m/S 732 mmHg 85%
    02:00 +3°C° 0 mm 1 m/S 731 mmHg 83%
    03:00 +3°C° 0 mm 1 m/S 731 mmHg 82%
    04:00 +3°C° 0 mm 1 m/S 730 mmHg 83%
    05:00 +3°C° 0 mm 1 m/S 730 mmHg 84%
    06:00 +2°C° 0 mm 1 m/S 730 mmHg 85%
    07:00 +3°C° 0.1 mm 1 m/S 729 mmHg 82%
    08:00 +4°C° 0.1 mm 1 m/S 729 mmHg 79%
    09:00 +4°C° 0.1 mm 1 m/S 729 mmHg 76%
    10:00 +5°C° 0.1 mm 1 m/S 729 mmHg 73%
    11:00 +6°C° 0.1 mm 1 m/S 728 mmHg 70%
    12:00 +6°C° 0.1 mm 1 m/S 728 mmHg 68%
    13:00 +6°C° 0.1 mm 1 m/S 727 mmHg 70%
    14:00 +6°C° 0.1 mm 1 m/S 727 mmHg 73%
    15:00 +6°C° 0.1 mm 1 m/S 726 mmHg 75%
    16:00 +5°C° 0.1 mm 1 m/S 726 mmHg 79%
    17:00 +4°C° 0.1 mm 1 m/S 726 mmHg 82%
    18:00 +4°C° 0.1 mm 1 m/S 726 mmHg 86%
    19:00 +4°C° 0.1 mm 1 m/S 726 mmHg 85%
    20:00 +3°C° 0.1 mm 1 m/S 725 mmHg 85%
    21:00 +3°C° 0.1 mm 1 m/S 725 mmHg 85%
    22:00 +3°C° 0.2 mm 1 m/S 725 mmHg 85%
    23:00 +3°C° 0.2 mm 1 m/S 725 mmHg 84%

    übermorgen, 20 November, Dienstag

    Zeit Temperatur Niederschläge Wind Luftdruck Luftfeuchtigkeit
    00:00 +3°C° 0.2 mm 1 m/S 724 mmHg 84%
    01:00 +3°C° 0.1 mm 1 m/S 724 mmHg 83%
    02:00 +4°C° 0.1 mm 1 m/S 724 mmHg 82%
    03:00 +4°C° 0.1 mm 1 m/S 724 mmHg 81%
    04:00 +4°C° 0 mm 1 m/S 724 mmHg 80%
    05:00 +3°C° 0 mm 1 m/S 723 mmHg 79%
    06:00 +3°C° 0 mm 1 m/S 723 mmHg 78%
    07:00 +4°C° 0.1 mm 1 m/S 723 mmHg 76%
    08:00 +5°C° 0.1 mm 1 m/S 723 mmHg 73%
    09:00 +6°C° 0.1 mm 1 m/S 723 mmHg 71%
    10:00 +7°C° 0.1 mm 1 m/S 723 mmHg 69%
    11:00 +9°C° 0.1 mm 1 m/S 723 mmHg 67%
    12:00 +10°C° 0.1 mm 1 m/S 723 mmHg 65%
    13:00 +9°C° 0 mm 1 m/S 723 mmHg 69%
    14:00 +9°C° 0 mm 1 m/S 724 mmHg 74%
    15:00 +8°C° 0 mm 1 m/S 724 mmHg 79%
    16:00 +7°C° 0 mm 1 m/S 724 mmHg 81%
    17:00 +6°C° 0 mm 1 m/S 725 mmHg 83%
    18:00 +5°C° 0 mm 1 m/S 725 mmHg 85%
    19:00 +5°C° 0 mm 1 m/S 726 mmHg 84%
    20:00 +5°C° 0 mm 1 m/S 726 mmHg 83%
    21:00 +5°C° 0 mm 1 m/S 726 mmHg 82%
    22:00 +5°C° 0.1 mm 1 m/S 726 mmHg 81%
    23:00 +6°C° 0.1 mm 1 m/S 727 mmHg 81%

    21 November, Mittwoch

    Zeit Temperatur Niederschläge Wind Luftdruck Luftfeuchtigkeit
    00:00 +6°C° 0.1 mm 1 m/S 727 mmHg 80%
    01:00 +6°C° 0.4 mm 1 m/S 727 mmHg 81%
    02:00 +5°C° 0.4 mm 1 m/S 726 mmHg 82%
    03:00 +5°C° 0.4 mm 1 m/S 726 mmHg 83%
    04:00 +5°C° 0.6 mm 1 m/S 726 mmHg 84%
    05:00 +5°C° 0.6 mm 1 m/S 727 mmHg 85%
    06:00 +5°C° 0.6 mm 1 m/S 727 mmHg 86%
    07:00 +5°C° 1 mm 1 m/S 727 mmHg 86%
    08:00 +5°C° 1 mm 1 m/S 728 mmHg 87%
    09:00 +5°C° 1 mm 0 m/S 728 mmHg 88%
    10:00 +5°C° 1.1 mm 0 m/S 729 mmHg 88%
    11:00 +5°C° 1.1 mm 0 m/S 729 mmHg 89%
    12:00 +6°C° 1.1 mm 0 m/S 729 mmHg 90%
    13:00 +6°C° 0.4 mm 0 m/S 729 mmHg 90%
    14:00 +6°C° 0.4 mm 0 m/S 730 mmHg 91%
    15:00 +6°C° 0.4 mm 0 m/S 730 mmHg 92%
    16:00 +5°C° 0.1 mm 0 m/S 730 mmHg 93%
    17:00 +5°C° 0.1 mm 0 m/S 731 mmHg 93%
    18:00 +4°C° 0.1 mm 0 m/S 731 mmHg 94%
    19:00 +4°C° 0.1 mm 0 m/S 731 mmHg 93%
    20:00 +4°C° 0.1 mm 0 m/S 732 mmHg 92%
    21:00 +4°C° 0.1 mm 0 m/S 732 mmHg 92%
    22:00 +5°C° 0.1 mm 0 m/S 733 mmHg 92%
    23:00 +5°C° 0.1 mm 0 m/S 733 mmHg 91%

    22 November, Donnerstag

    Zeit Temperatur Niederschläge Wind Luftdruck Luftfeuchtigkeit
    00:00 +5°C° 0.1 mm 0 m/S 733 mmHg 91%
    01:00 +4°C° 0 mm 0 m/S 733 mmHg 91%
    02:00 +4°C° 0 mm 0 m/S 733 mmHg 91%
    03:00 +5°C° 0 mm 1 m/S 733 mmHg 91%
    04:00 +5°C° 0 mm 1 m/S 733 mmHg 91%
    05:00 +5°C° 0 mm 1 m/S 733 mmHg 90%
    06:00 +4°C° 0 mm 1 m/S 733 mmHg 90%
    07:00 +6°C° 0 mm 1 m/S 733 mmHg 88%
    08:00 +7°C° 0 mm 1 m/S 733 mmHg 86%
    09:00 +8°C° 0 mm 1 m/S 734 mmHg 83%
    10:00 +9°C° 0 mm 1 m/S 734 mmHg 80%
    11:00 +10°C° 0 mm 1 m/S 733 mmHg 76%
    12:00 +12°C° 0 mm 1 m/S 733 mmHg 73%
    13:00 +11°C° 0.1 mm 1 m/S 733 mmHg 75%
    14:00 +11°C° 0.1 mm 1 m/S 733 mmHg 78%
    15:00 +10°C° 0.1 mm 0 m/S 733 mmHg 81%
    16:00 +10°C° 0.7 mm 1 m/S 734 mmHg 84%
    17:00 +9°C° 0.7 mm 1 m/S 734 mmHg 87%
    18:00 +8°C° 0.7 mm 1 m/S 734 mmHg 90%
    19:00 +8°C° 0.5 mm 1 m/S 735 mmHg 91%
    20:00 +8°C° 0.5 mm 1 m/S 735 mmHg 91%
    21:00 +8°C° 0.5 mm 1 m/S 736 mmHg 92%
    22:00 +7°C° 0.1 mm 1 m/S 736 mmHg 91%
    23:00 +7°C° 0.1 mm 1 m/S 736 mmHg 91%

    23 November, Freitag

    Zeit Temperatur Niederschläge Wind Luftdruck Luftfeuchtigkeit
    00:00 +6°C° 0.1 mm 1 m/S 736 mmHg 91%
    01:00 +6°C° 0.1 mm 1 m/S 736 mmHg 90%
    02:00 +6°C° 0.1 mm 1 m/S 737 mmHg 90%
    03:00 +6°C° 0.1 mm 1 m/S 737 mmHg 90%
    04:00 +5°C° 0 mm 1 m/S 737 mmHg 89%
    05:00 +5°C° 0 mm 1 m/S 737 mmHg 89%
    06:00 +5°C° 0 mm 1 m/S 738 mmHg 88%
    07:00 +6°C° 0 mm 1 m/S 738 mmHg 86%
    08:00 +7°C° 0 mm 1 m/S 738 mmHg 83%
    09:00 +9°C° 0 mm 1 m/S 738 mmHg 81%
    10:00 +10°C° 0 mm 1 m/S 738 mmHg 77%
    11:00 +11°C° 0 mm 1 m/S 738 mmHg 73%
    12:00 +13°C° 0 mm 1 m/S 738 mmHg 69%
    13:00 +12°C° 0 mm 1 m/S 738 mmHg 72%
    14:00 +12°C° 0 mm 1 m/S 738 mmHg 75%
    15:00 +11°C° 0 mm 1 m/S 738 mmHg 78%
    16:00 +10°C° 0 mm 1 m/S 738 mmHg 81%
    17:00 +9°C° 0 mm 1 m/S 738 mmHg 83%
    18:00 +7°C° 0 mm 1 m/S 738 mmHg 86%
    19:00 +7°C° 0 mm 1 m/S 738 mmHg 86%
    20:00 +7°C° 0 mm 1 m/S 739 mmHg 85%
    21:00 +6°C° 0 mm 1 m/S 739 mmHg 85%
    22:00 +6°C° 0 mm 1 m/S 739 mmHg 84%
    23:00 +6°C° 0 mm 1 m/S 739 mmHg 83%
    Mehr zeigen